User: anonymous   Login
Location: Montr�al
(45.5000°N, 73.5830°W)
Time: 16:43:06
(UTC-04:00)
Language:

Cosmos 1151 Rocket - Orbit

View from above orbital plane
View from above orbital plane
View from above satellite
View from above satellite

Ground track
Ground track

The orbit data is extracted from the following two-line orbital elements,

1 11672U 80005B   16145.92457077 +.00000135 +00000-0 +12015-4 0  9990
2 11672 082.5163 085.8167 0017201 160.8814 199.3053 14.87786055944545
Epoch (UTC): 24 May 2016 22:11:22
Eccentricity: 0.0017201
inclination: 82.5163°
perigee height: 593 km
apogee height: 617 km
right ascension of ascending node: 85.8167°
argument of perigee: 160.8814°
revolutions per day: 14.87786055
mean anomaly at epoch: 199.3053°
orbit number at epoch: 94454

The dashed part of the orbit path shows where the satellite is in the earth's shadow,  

DLR